Tracking 21076 objects as of 10-Aug-2020
HD Live streaming from Space Station
objects crossing your sky now
Track the most recent launched group of Starlink satellites

PSLV DEB


PSLV DEB is no longer on orbit


NORAD ID: 27114
Int'l Code: 2001-049BJ
Perigee: N/A
Apogee: N/A
Inclination: N/A
Period: N/A
Semi major axis: N/A
RCS: N/A
Launch date: October 22, 2001
Source: India (IND)
Launch site: SRIHARIKOTA (SRI)
Decay date: 2017-03-04

Note: This is SATELLITE DEBRIS
aabbcc
Your satellite tracking list
Your tracking list is empty




NASA's NSSDC Master Catalog

Two Line Element Set (TLE):
1 27114U 01049BJ  17061.89543241 +.10254984 +27793-5 +17524-2 0  9997
2 27114 097.7799 103.8612 0008325 242.1819 117.8632 16.33019635829308
Source of the keplerian elements: AFSPC